User: anonymous   Login
Location: Unspecified
(0.0000°N, 0.0000°E)
Time: 00:12:24
(UTC+00:00)
Language:

KUIPER-00024 - Orbit

View from above orbital plane
View from above orbital plane
View from above satellite
View from above satellite

Ground track
Ground track

The orbit is defined by the following mean orbital elements,

1 63738U          26145.17442676 +.00000000 +00000-0 +19889-3 0 00003
2 63738  51.9025 114.9180 0000638  65.8335 294.2694 14.79933961    00
Epoch (UTC): 25 May 2026 04:11:10
Eccentricity: 0.0000638
inclination: 51.9025°
perigee height: 629 km
apogee height: 630 km
right ascension of ascending node: 114.9180°
argument of perigee: 65.8335°
revolutions per day: 14.79933961
mean anomaly at epoch: 294.2694°

The dashed part of the orbit path shows where the satellite is in the earth's shadow,  

DLR